This is the latest recevied weather packets stored in our database for station/object VE1UHF-4. If no packets are shown the sender has not sent any weather packets the latest 10 day(s).
| Time | Temp. | Humidity | Pressure | Rain* | Wind** | Luminosity | Snow |
|---|---|---|---|---|---|---|---|
| 1777940294 | 15° C | 76% | 997.6 hPa | 0 mm | - | - | - |
| 1777939397 | 15° C | 76% | 997.2 hPa | 0 mm | - | - | - |
| 1777938494 | 15° C | 77% | 996.9 hPa | 0 mm | - | - | - |
| 1777937593 | 15.56° C | 76% | 996.6 hPa | 0 mm | - | - | - |
| 1777936692 | 15.56° C | 76% | 996.5 hPa | 0 mm | - | - | - |
| 1777935792 | 16.11° C | 76% | 996.4 hPa | 0 mm | - | - | - |
| 1777933990 | 16.67° C | 76% | 996 hPa | 0 mm | - | - | - |
| 1777933090 | 17.22° C | 76% | 995.9 hPa | 0 mm | - | - | - |
| 1777932189 | 17.22° C | 76% | 995.7 hPa | 0 mm | - | - | - |
| 1777931289 | 17.78° C | 76% | 995.5 hPa | 0 mm | - | - | - |
| 1777930388 | 17.78° C | 77% | 995.2 hPa | 0 mm | - | - | - |
| 1777929488 | 18.33° C | 77% | 995.5 hPa | 0 mm | - | - | - |
| 1777928587 | 18.33° C | 77% | 995.4 hPa | 0 mm | - | - | - |
| 1777927687 | 18.33° C | 78% | 995.3 hPa | 0 mm | - | - | - |
| 1777926786 | 18.33° C | 78% | 995 hPa | 0 mm | - | - | - |
| 1777925886 | 18.89° C | 78% | 994.9 hPa | 0 mm | - | - | - |
| 1777924985 | 18.89° C | 79% | 994.7 hPa | 0 mm | - | - | - |
| 1777924085 | 18.89° C | 79% | 994.5 hPa | 0 mm | - | - | - |
| 1777923184 | 18.89° C | 81% | 994.5 hPa | 0 mm | - | - | - |
| 1777922283 | 18.89° C | 81% | 994.4 hPa | 0 mm | - | - | - |
| 1777921383 | 18.89° C | 82% | 994.4 hPa | 0 mm | - | - | - |
| 1777920482 | 18.89° C | 84% | 994.3 hPa | 0 mm | - | - | - |
| 1777919582 | 18.89° C | 86% | 994.4 hPa | 0 mm | - | - | - |
| 1777918682 | 18.33° C | 86% | 994.4 hPa | 0 mm | - | - | - |
| 1777917781 | 18.33° C | 87% | 994.4 hPa | 0 mm | - | - | - |
* Rain since midnight (hover to see other rain measurements)
** Current wind speed in m/s (hover to see current wind gust speed)